{"data":{"norad_id":65738,"intl_designator":"2025-216E","name":"STARLINK-35108","alt_names":[],"object_type":"PAYLOAD","status":"ACTIVE","operator":null,"country":"US","launch_date":"2025-09-25","launch_site_code":"AFETR","launch_vehicle":null,"mission":null,"orbit_class":"UNKNOWN","rcs_meters":null,"size_class":null,"mass_kg":null,"dimensions":null,"purposes":["comms"],"wikipedia_slug":null,"has_3d_model":false,"image_url":null,"decayed_at":null,"tle_current":{"epoch":"2026-09-20T09:37:37.302816Z","epoch_age_seconds":117316,"freshness":"FRESH","line1":"1 65738U 25216E   26263.40112619  .00015165  00000+0  45910-3 0  9997","line2":"2 65738  53.1579 146.4359 0001852  79.2908 280.8303 15.34396215 56435","mean_motion":15.34396215,"eccentricity":0.0001852,"inclination_deg":53.1579,"raan_deg":146.4359,"arg_perigee_deg":79.2908,"mean_anomaly_deg":280.8303,"bstar":0.0004591,"rev_number":5643,"period_min":93.847989582013,"perigee_km":461.44756435193,"apogee_km":463.98141574384,"semimajor_km":6840.8514900479,"source":"CELESTRAK","updated_at":"2026-09-21T09:00:35.692030Z"}}}